Location: Waco, TX
(31.5480°N, 97.1670°W)
Time: 15:59:44
(UTC-05:00)

ISS - Pass Details

Date: 20 August 2019
Orbit: 410 x 421 km, 51.6° (Epoch: 22 August)

Event Time Altitude Azimuth Distance (km) Brightness Sun altitude
Rises 07:56:54 0° 215° (SW) 2,331 -0.4 11.7°
Reaches altitude 10° 07:58:59 10° 211° (SSW) 1,475 -1.3 12.1°
Maximum altitude 08:02:15 56° 132° (SE) 496 -2.8 12.8°
Drops below altitude 10° 08:05:31 10° 53° (NE) 1,489 0.3 13.5°
Sets 08:07:39 0° 49° (NE) 2,357 1.0 13.9°
